Location: Taukkyan
(23.1052°N, 94.0030°E)
Time: 11:52:24
(UTC+00:00)

ATLAS 5 CENTAUR R/B - Pass Details

Date: 06 July 2020
Orbit: 534 x 1124 km, 63.4° (Epoch: 09 August)

Event Time Altitude Azimuth Distance (km) Brightness Sun altitude
Rises 13:52:52 0° 224° (SW) 2,672 4.9 -16.6°
Reaches altitude 10° 13:55:10 10° 233° (SW) 1,776 4.1 -17.1°
Maximum altitude 13:58:45 35° 300° (WNW) 892 3.0 -17.8°
Drops below altitude 10° 14:02:31 10° 7° (N) 1,861 4.4 -18.5°
Sets 14:04:59 0° 16° (NNE) 2,821 5.2 -18.9°
